Regional Weather Roundup
Issued by NWS

Home | Current Version | Previous Version | Text Only | Print | Product List | Glossary Off
Versions: 1 2 3 4 5 6 7 8 9 10 11 12 13 14 15 16 17 18 19 20 21 22 23 24 25 26 27 28 29 30 31 32 33 34 35 36 37 38 39 40 41 42 43 44 45 46 47 48 49 50

000
ASUS43 KIND 291709
RWRIN

WEATHER ROUNDUP FOR INDIANA
NATIONAL WEATHER SERVICE INDIANAPOLIS IN
100 PM EDT WED MAR 29 2017

NOTE: "FAIR" INDICATES FEW OR NO CLOUDS BELOW 12,000 FEET WITH NO
SIGNIFICANT WEATHER AND/OR OBSTRUCTIONS TO VISIBILITY.

* - STATION DOES NOT REPORT WEATHER SUCH AS PRECIPITATION OR FOG.

+ - STATION NOT QUALITY CONTROLLED BY THE NATIONAL WEATHER SERVICE.
    USE DATA WITH CAUTION...ESPECIALLY DEWPOINT AND RELATIVE
    HUMIDITY OBSERVATIONS.

INZ001>003-010>013-019-020-291800-
NORTHWEST INDIANA

CITY           SKY/WX    TMP DP  RH WIND       PRES   REMARKS
GARY /AIRPORT/ PTSUNNY   46  37  71 NE10      30.24S
KNOX *+        CLOUDY    54  10  17 E18       30.22S
LA PORTE +     MOSUNNY   52  37  55 E13G21    30.24S
MICHIGAN CITY+ PTSUNNY   52  34  50 E7        30.24S
MONTICELLO +   SUNNY     52  37  54 E17       30.19F
RENSSELAER +   MOSUNNY   54  37  54 E17       30.20S
VALPARAISO     PTSUNNY   56  38  50 E16       30.23S

$$

LMZ046-743>745-291800-
SOUTHERN LAKE MICHIGAN

STATION/POSITION TIME  TEMP    WIND        PRES    WAVE
                       AIR SEA DIR/SP/G            HT
                 (UTC) (F)     (DEG/KT/KT) (MB)    (FT)
BURNS HARBOR     1640   40      30/ 10/ 15 1024.4R
MICHIGAN CITY    1640   43      10/ 12/ 13   N/A

$$

INZ004-005-014>016-021>024-291800-
NORTH CENTRAL INDIANA

CITY           SKY/WX    TMP DP  RH WIND       PRES   REMARKS
ELKHART        MOSUNNY   54  36  50 E12       30.24F
GOSHEN         SUNNY     53  35  50 E17       30.24F
LOGANSPORT +   SUNNY     52  37  58 E17G24    30.21S
PERU/GRISSOM   SUNNY     51  37  60 E15       30.18F
ROCHESTER +    SUNNY     57  36  44 E18G24    30.22F
SOUTH BEND     MOSUNNY   52  33  48 E16G24    30.24F
WARSAW +       SUNNY     54  36  50 E17G25    30.23F

$$

INZ006>009-017-018-025>027-291800-
NORTHEAST INDIANA

CITY           SKY/WX    TMP DP  RH WIND       PRES   REMARKS
ANGOLA *+      SUNNY     50  37  62 E9        30.26S
AUBURN +       SUNNY     52  36  54 E12G20    30.25F
FORT WAYNE     MOSUNNY   52  39  61 E15       30.24F
HUNTINGTON +   SUNNY     51  37  60 E14G20    30.22F
KENDALLVILLE + SUNNY     52  36  54 E14       30.25F

$$

INZ028-029-035-036-043>045-051>053-291800-
WEST CENTRAL INDIANA

CITY           SKY/WX    TMP DP  RH WIND       PRES   REMARKS
CRAWFORDSVL +  SUNNY     53  43  67 E12       30.17R
GREENCASTLE +  SUNNY     54  41  62 SE9       30.17R
LAFAYETTE      SUNNY     53  37  54 E21G26    30.18S
TERRE HAUTE    PTSUNNY   56  46  69 E13       30.14F

$$

INZ030>032-037>040-046>048-054>057-064-065-291800-
CENTRAL INDIANA

CITY           SKY/WX    TMP DP  RH WIND       PRES   REMARKS
ANDERSON       MOSUNNY   50  41  71 E12G17    30.20
CP ATTERBURY + SUNNY     55  43  62 E13       30.17F
COLUMBUS       MOSUNNY   55  46  71 E9        30.17F
FISHERS *+     SUNNY     50  43  76 E7        30.19F
FRANKFORT +    SUNNY     53  44  71 E20G28    30.19F
GREENWOOD *+   SUNNY     52  42  69 E12G18    30.19F
INDIANAPOLIS   MOSUNNY   54  41  61 E16       30.17F
-EAGLE CREEK   SUNNY     53  41  63 E14G20    30.16F
KOKOMO +       SUNNY     50  42  74 E16       30.20F
MARION +       SUNNY     50  39  66 E15G21    30.20F
MT COMFORT *+  MOSUNNY   50  39  66 E15       30.20F
SHELBYVILLE    MOSUNNY   50  41  71 E15       30.18F
ZIONSVILLE +   SUNNY     49  40  71 E15       30.19S

$$

INZ033-034-041-042-049-050-058-059-291800-
EAST CENTRAL INDIANA

CITY           SKY/WX    TMP DP  RH WIND       PRES   REMARKS
MUNCIE         SUNNY     51  41  68 E15       30.20F
RICHMOND +     MOSUNNY   50  41  71 E13       30.20S

$$

INZ060-061-067>069-081>083-085>088-291800-
SOUTHWEST INDIANA

CITY           SKY/WX    TMP DP  RH WIND       PRES   REMARKS
EVANSVILLE     MOSUNNY   64  51  62 E9        30.09F
HUNTINGBURG *+ CLOUDY    62  52  69 E10       30.11F
WASHINGTON +   CLOUDY    57  46  68 CALM      30.13F

$$

INZ062-063-066-070>080-084-089>092-291800-
SOUTH CENTRAL AND SOUTHEAST INDIANA

CITY           SKY/WX    TMP DP  RH WIND       PRES   REMARKS
BEDFORD +      CLOUDY    52  43  71 E7        30.17R
BLOOMINGTON    CLOUDY    52  43  71 E8        30.16R
MADISON *+     CLOUDY    54  43  66 NE7       30.19S
NORTH VERNON + SUNNY     55  41  58 CALM      30.18R
SEYMOUR +      PTSUNNY   55  45  67 E8        30.17F

$$





USA.gov is the U.S. government's official web portal to all federal, state and local government web resources and services.